SWR81N OISS-LTFD

Flight info

Callsign SWR81N
Flight time 3h 40m
Altitude 32000
Route KISED1E KISED W3 KIXOB L223 KAPES M555 ALRAM UT888 SIV UA4 ERKAL UL615 BKZ/N0434F280 N604 BIG DCT LEDLO LEDLO1K
Aircraft A321/M-SDE3FGHIRWY/LB1

Departure

Time 2026-05-07 10:35
Airport Shiraz Shahid Dastghaib International Airport (OISS)

Arrival

Time 2026-05-07 14:15
Airport Balıkesir Koca Seyit Airport (LTFD)
Time Latitude Longitude Altitude Speed Heading
2026-05-07 09:53 29.54529 52.58927 4927 ft 0 kts 22°
2026-05-07 10:19 29.54516 52.58922 4926 ft 4 kts 24°
2026-05-07 10:19 29.54493 52.58907 4925 ft 4 kts 42°
2026-05-07 10:19 29.54482 52.58887 4926 ft 3 kts 109°
2026-05-07 10:20 29.54485 52.58879 4925 ft 0 kts 114°
2026-05-07 10:23 29.54483 52.58884 4925 ft 1 kts 114°
2026-05-07 10:23 29.54480 52.58891 4926 ft 1 kts 114°
2026-05-07 10:23 29.54474 52.58908 4926 ft 3 kts 114°
2026-05-07 10:24 29.54457 52.58934 4926 ft 5 kts 142°
2026-05-07 10:24 29.54421 52.58935 4926 ft 6 kts 186°
2026-05-07 10:24 29.54380 52.58947 4925 ft 7 kts 147°
2026-05-07 10:24 29.54353 52.58992 4925 ft 7 kts 115°
2026-05-07 10:25 29.54333 52.59041 4925 ft 7 kts 115°
2026-05-07 10:25 29.54314 52.59088 4924 ft 6 kts 114°
2026-05-07 10:25 29.54297 52.59132 4925 ft 6 kts 114°
2026-05-07 10:25 29.54282 52.59171 4927 ft 5 kts 114°
2026-05-07 10:26 29.54268 52.59206 4927 ft 5 kts 114°
2026-05-07 10:26 29.54251 52.59247 4925 ft 7 kts 115°
2026-05-07 10:26 29.54229 52.59304 4924 ft 9 kts 114°
2026-05-07 10:26 29.54199 52.59378 4926 ft 11 kts 114°
2026-05-07 10:27 29.54164 52.59467 4925 ft 13 kts 115°
2026-05-07 10:27 29.54124 52.59567 4926 ft 14 kts 115°
2026-05-07 10:27 29.54085 52.59665 4924 ft 13 kts 114°
2026-05-07 10:27 29.54047 52.59759 4926 ft 13 kts 114°
2026-05-07 10:28 29.54012 52.59849 4924 ft 12 kts 114°
2026-05-07 10:28 29.53979 52.59934 4927 ft 11 kts 114°
2026-05-07 10:28 29.53947 52.60013 4925 ft 11 kts 114°
2026-05-07 10:28 29.53918 52.60088 4926 ft 10 kts 115°
2026-05-07 10:29 29.53885 52.60170 4925 ft 12 kts 115°
2026-05-07 10:29 29.53848 52.60262 4925 ft 14 kts 115°
2026-05-07 10:29 29.53805 52.60368 4927 ft 15 kts 114°
2026-05-07 10:30 29.53710 52.60610 4925 ft 17 kts 114°
2026-05-07 10:30 29.53663 52.60729 4927 ft 16 kts 114°
2026-05-07 10:30 29.53616 52.60848 4925 ft 16 kts 114°
2026-05-07 10:30 29.53570 52.60964 4925 ft 16 kts 114°
2026-05-07 10:31 29.53525 52.61077 4925 ft 16 kts 115°
2026-05-07 10:31 29.53465 52.61174 4924 ft 11 kts 147°
2026-05-07 10:31 29.53390 52.61168 4924 ft 13 kts 204°
2026-05-07 10:31 29.53298 52.61114 4916 ft 16 kts 207°
2026-05-07 10:32 29.53200 52.61055 4921 ft 14 kts 208°
2026-05-07 10:32 29.53125 52.61014 4925 ft 10 kts 204°
2026-05-07 10:32 29.53064 52.60983 4924 ft 10 kts 204°
2026-05-07 10:32 29.52988 52.60944 4923 ft 15 kts 204°
2026-05-07 10:33 29.52930 52.60904 4919 ft 7 kts 242°
2026-05-07 10:33 29.52937 52.60859 4922 ft 3 kts 296°
2026-05-07 10:33 29.52938 52.60857 4922 ft 0 kts 295°
2026-05-07 10:34 29.52969 52.60779 4919 ft 38 kts 295°
2026-05-07 10:34 29.53172 52.60271 4917 ft 99 kts 294°
2026-05-07 10:34 29.53534 52.59370 4918 ft 148 kts 295°
2026-05-07 10:35 29.54020 52.58150 4919 ft 186 kts 295°
2026-05-07 10:35 29.54586 52.56760 5357 ft 188 kts 295°
2026-05-07 10:35 29.55120 52.55390 5969 ft 188 kts 293°
2026-05-07 10:35 29.55623 52.54006 6395 ft 188 kts 292°
2026-05-07 10:36 29.56131 52.52571 6592 ft 202 kts 292°
2026-05-07 10:36 29.56712 52.51027 6735 ft 219 kts 294°
2026-05-07 10:36 29.57351 52.49372 6876 ft 235 kts 296°
2026-05-07 10:36 29.58383 52.47826 6930 ft 255 kts 310°
2026-05-07 10:37 29.59613 52.46296 7060 ft 274 kts 311°
2026-05-07 10:37 29.60930 52.44670 7584 ft 279 kts 311°
2026-05-07 10:37 29.62263 52.43027 8214 ft 283 kts 311°
2026-05-07 10:37 29.63613 52.41359 8852 ft 286 kts 311°
2026-05-07 10:38 29.64976 52.39672 9549 ft 289 kts 311°
2026-05-07 10:38 29.66352 52.37964 10196 ft 296 kts 311°
2026-05-07 10:38 29.67801 52.36160 10347 ft 317 kts 311°
2026-05-07 10:38 29.69334 52.34254 10467 ft 332 kts 311°
2026-05-07 10:39 29.70940 52.32258 10585 ft 347 kts 311°
2026-05-07 10:39 29.72615 52.30175 10703 ft 361 kts 311°
2026-05-07 10:39 29.74339 52.28030 10987 ft 368 kts 311°
2026-05-07 10:39 29.76082 52.25862 11434 ft 370 kts 311°
2026-05-07 10:40 29.77833 52.23684 11908 ft 372 kts 311°
2026-05-07 10:40 29.79594 52.21491 12339 ft 374 kts 311°
2026-05-07 10:40 29.81341 52.19314 12800 ft 376 kts 311°
2026-05-07 10:40 29.83121 52.17096 13309 ft 378 kts 311°
2026-05-07 10:41 29.84910 52.14867 13810 ft 380 kts 311°
2026-05-07 10:41 29.86709 52.12628 14277 ft 381 kts 311°
2026-05-07 10:41 29.88511 52.10383 14721 ft 382 kts 311°
2026-05-07 10:41 29.90319 52.08127 15163 ft 384 kts 310°
2026-05-07 10:42 29.92131 52.05857 15584 ft 386 kts 310°
2026-05-07 10:42 29.93949 52.03570 16025 ft 388 kts 310°
2026-05-07 10:42 29.95779 52.01266 16413 ft 391 kts 310°
2026-05-07 10:42 29.97621 51.98949 16790 ft 393 kts 310°
2026-05-07 10:43 29.99481 51.96617 17200 ft 396 kts 310°
2026-05-07 10:43 30.01348 51.94276 17634 ft 398 kts 310°
2026-05-07 10:43 30.03225 51.91923 18064 ft 399 kts 310°
2026-05-07 10:43 30.05111 51.89560 18437 ft 401 kts 310°
2026-05-07 10:44 30.07009 51.87181 18757 ft 404 kts 310°
2026-05-07 10:44 30.08914 51.84784 19115 ft 406 kts 309°
2026-05-07 10:44 30.10800 51.82406 19452 ft 408 kts 309°
2026-05-07 10:44 30.12718 51.79984 19763 ft 410 kts 309°
2026-05-07 10:45 30.14652 51.77544 20098 ft 413 kts 309°
2026-05-07 10:45 30.16599 51.75088 20417 ft 415 kts 309°
2026-05-07 10:45 30.18555 51.72621 20748 ft 417 kts 309°
2026-05-07 10:45 30.20522 51.70144 21011 ft 419 kts 309°
2026-05-07 10:46 30.22496 51.67655 21279 ft 421 kts 309°
2026-05-07 10:46 30.24478 51.65152 21655 ft 423 kts 309°
2026-05-07 10:46 30.26466 51.62636 22017 ft 425 kts 308°
2026-05-07 10:46 30.28466 51.60103 22312 ft 428 kts 308°
2026-05-07 10:47 30.30475 51.57559 22665 ft 430 kts 308°
2026-05-07 10:47 30.32489 51.54994 23063 ft 431 kts 307°
2026-05-07 10:47 30.34502 51.52406 23335 ft 434 kts 307°
2026-05-07 10:47 30.36519 51.49797 23633 ft 436 kts 307°
2026-05-07 10:48 30.38544 51.47172 23929 ft 438 kts 307°
2026-05-07 10:48 30.40581 51.44539 24219 ft 439 kts 307°
2026-05-07 10:48 30.42612 51.41895 24499 ft 439 kts 306°
2026-05-07 10:48 30.44587 51.39250 24763 ft 440 kts 305°
2026-05-07 10:49 30.46569 51.36542 25023 ft 442 kts 305°
2026-05-07 10:49 30.48549 51.33812 25301 ft 443 kts 304°
2026-05-07 10:49 30.50533 51.31075 25580 ft 444 kts 304°
2026-05-07 10:49 30.52524 51.28336 25840 ft 445 kts 304°
2026-05-07 10:50 30.54524 51.25595 26092 ft 446 kts 304°
2026-05-07 10:50 30.56535 51.22852 26350 ft 447 kts 304°
2026-05-07 10:50 30.58555 51.20104 26573 ft 448 kts 304°
2026-05-07 10:50 30.60581 51.17349 26825 ft 449 kts 304°
2026-05-07 10:51 30.62609 51.14585 27085 ft 450 kts 304°
2026-05-07 10:51 30.64639 51.11815 27391 ft 450 kts 304°
2026-05-07 10:51 30.66630 51.09093 27868 ft 446 kts 304°
2026-05-07 10:51 30.68630 51.06354 28268 ft 444 kts 303°
2026-05-07 10:52 30.70623 51.03620 28566 ft 442 kts 303°
2026-05-07 10:52 30.72608 51.00898 28861 ft 442 kts 303°
2026-05-07 10:52 30.74593 50.98171 29155 ft 441 kts 303°
2026-05-07 10:52 30.76570 50.95453 29407 ft 441 kts 303°
2026-05-07 10:53 30.78548 50.92731 29781 ft 439 kts 303°
2026-05-07 10:53 30.80519 50.90023 30157 ft 438 kts 303°
2026-05-07 10:53 30.82482 50.87324 30466 ft 436 kts 303°
2026-05-07 10:53 30.84432 50.84643 30795 ft 433 kts 302°
2026-05-07 10:54 30.86351 50.82004 31083 ft 432 kts 302°
2026-05-07 10:54 30.88283 50.79340 31366 ft 431 kts 302°
2026-05-07 10:54 30.90212 50.76679 31620 ft 429 kts 302°
2026-05-07 10:54 30.92133 50.74023 31924 ft 429 kts 302°
2026-05-07 10:55 30.96001 50.68653 31986 ft 437 kts 302°
2026-05-07 10:55 30.99950 50.63176 32000 ft 446 kts 302°
2026-05-07 10:56 31.03971 50.57615 32005 ft 451 kts 302°
2026-05-07 10:56 31.08026 50.52000 31997 ft 454 kts 302°
2026-05-07 10:57 31.12070 50.46391 32008 ft 456 kts 302°
2026-05-07 10:57 31.16424 50.41007 32008 ft 458 kts 313°
2026-05-07 10:58 31.21660 50.36910 32054 ft 447 kts 317°
2026-05-07 10:58 31.26814 50.32960 32017 ft 440 kts 317°
2026-05-07 10:59 31.31879 50.29047 32037 ft 433 kts 317°
2026-05-07 10:59 31.36833 50.25206 32057 ft 426 kts 316°
2026-05-07 11:00 31.41771 50.21399 32052 ft 421 kts 316°
2026-05-07 11:00 31.46652 50.17633 32054 ft 421 kts 316°
2026-05-07 11:01 31.51526 50.13845 32036 ft 420 kts 316°
2026-05-07 11:01 31.56409 50.10052 32055 ft 423 kts 317°
2026-05-07 11:02 31.61365 50.06195 32058 ft 432 kts 317°
2026-05-07 11:02 31.66375 50.02300 32029 ft 436 kts 317°
2026-05-07 11:03 31.71476 49.98332 32044 ft 443 kts 317°
2026-05-07 11:03 31.76628 49.94319 32034 ft 446 kts 317°
2026-05-07 11:04 31.81838 49.90254 32049 ft 452 kts 317°
2026-05-07 11:04 31.87105 49.86138 32017 ft 457 kts 317°
2026-05-07 11:05 31.92394 49.82008 32028 ft 462 kts 317°
2026-05-07 11:05 31.97757 49.77797 32014 ft 465 kts 317°
2026-05-07 11:06 32.03145 49.73547 32025 ft 467 kts 317°
2026-05-07 11:06 32.08567 49.69277 32015 ft 470 kts 317°
2026-05-07 11:07 32.13976 49.65018 32028 ft 471 kts 317°
2026-05-07 11:07 32.19414 49.60732 32002 ft 469 kts 317°
2026-05-07 11:08 32.24841 49.56450 32019 ft 469 kts 317°
2026-05-07 11:08 32.30247 49.52174 32022 ft 466 kts 317°
2026-05-07 11:09 32.35616 49.47917 32076 ft 464 kts 317°
2026-05-07 11:09 32.40924 49.43703 32084 ft 459 kts 317°
2026-05-07 11:10 32.46232 49.39486 32077 ft 460 kts 317°
2026-05-07 11:10 32.51550 49.35252 32105 ft 460 kts 317°
2026-05-07 11:11 32.56827 49.31055 32066 ft 457 kts 316°
2026-05-07 11:11 32.62095 49.26860 32088 ft 455 kts 316°
2026-05-07 11:12 32.67315 49.22682 32084 ft 455 kts 317°
2026-05-07 11:12 32.72542 49.18485 32101 ft 455 kts 316°
2026-05-07 11:13 32.77810 49.14260 32090 ft 460 kts 317°
2026-05-07 11:13 32.83054 49.10080 32143 ft 449 kts 318°
2026-05-07 11:14 32.88244 49.05917 32082 ft 453 kts 317°
2026-05-07 11:14 32.93467 49.01705 32099 ft 454 kts 316°
2026-05-07 11:15 32.98680 48.97498 32135 ft 457 kts 316°
2026-05-07 11:15 33.03960 48.93232 32130 ft 459 kts 316°
2026-05-07 11:16 33.09262 48.88952 32119 ft 460 kts 316°
2026-05-07 11:16 33.14565 48.84662 32140 ft 460 kts 316°
2026-05-07 11:17 33.19852 48.80385 32116 ft 457 kts 316°
2026-05-07 11:17 33.25051 48.76174 32121 ft 453 kts 316°
2026-05-07 11:18 33.30244 48.71943 32112 ft 451 kts 316°
2026-05-07 11:18 33.35421 48.67723 32122 ft 449 kts 316°
2026-05-07 11:19 33.40644 48.63601 32130 ft 451 kts 318°
2026-05-07 11:19 33.46018 48.59678 32143 ft 453 kts 319°
2026-05-07 11:20 33.51362 48.55813 32142 ft 451 kts 319°
2026-05-07 11:20 33.56690 48.51883 32140 ft 448 kts 318°
2026-05-07 11:21 33.61976 48.47928 32138 ft 447 kts 318°
2026-05-07 11:21 33.67241 48.43982 32135 ft 446 kts 318°
2026-05-07 11:22 33.72477 48.40076 32149 ft 441 kts 318°
2026-05-07 11:22 33.77650 48.36211 32162 ft 441 kts 318°
2026-05-07 11:23 33.82866 48.32300 32159 ft 442 kts 318°
2026-05-07 11:23 33.88090 48.28384 32155 ft 443 kts 318°
2026-05-07 11:24 33.93326 48.24446 32146 ft 445 kts 318°
2026-05-07 11:24 33.98581 48.20489 32158 ft 446 kts 318°
2026-05-07 11:25 34.03848 48.16526 32152 ft 447 kts 318°
2026-05-07 11:25 34.09086 48.12573 32153 ft 448 kts 318°
2026-05-07 11:26 34.14368 48.08574 32146 ft 449 kts 318°
2026-05-07 11:26 34.19678 48.04554 32157 ft 451 kts 318°
2026-05-07 11:27 34.25001 48.00521 32156 ft 452 kts 318°
2026-05-07 11:27 34.30333 47.96481 32146 ft 453 kts 318°
2026-05-07 11:28 34.35631 47.92451 32154 ft 453 kts 318°
2026-05-07 11:28 34.40971 47.88378 32152 ft 454 kts 318°
2026-05-07 11:29 34.46313 47.84307 32144 ft 453 kts 318°
2026-05-07 11:29 34.51644 47.80250 32161 ft 452 kts 318°
2026-05-07 11:30 34.56062 47.76874 32153 ft 452 kts 318°
2026-05-07 11:30 34.61372 47.72795 32144 ft 451 kts 318°
2026-05-07 11:31 34.67541 47.68051 32157 ft 452 kts 318°
2026-05-07 11:31 34.72856 47.63965 32149 ft 452 kts 318°
2026-05-07 11:32 34.79937 47.58515 32138 ft 453 kts 318°
2026-05-07 11:33 34.85259 47.54410 32138 ft 453 kts 318°
2026-05-07 11:33 34.91447 47.49642 32155 ft 453 kts 318°
2026-05-07 11:34 34.95869 47.46225 32154 ft 453 kts 318°
2026-05-07 11:34 35.01186 47.42101 32138 ft 453 kts 318°
2026-05-07 11:35 35.06504 47.37974 32147 ft 453 kts 318°
2026-05-07 11:35 35.11813 47.33839 32129 ft 453 kts 318°
2026-05-07 11:36 35.17124 47.29701 32109 ft 453 kts 318°
2026-05-07 11:36 35.22468 47.25598 32111 ft 454 kts 319°
2026-05-07 11:37 35.27806 47.21570 32104 ft 454 kts 319°
2026-05-07 11:37 35.33167 47.17512 32091 ft 453 kts 319°
2026-05-07 11:38 35.38515 47.13426 32102 ft 453 kts 319°
2026-05-07 11:38 35.43857 47.09313 32091 ft 454 kts 319°
2026-05-07 11:39 35.49209 47.05201 32106 ft 454 kts 319°
2026-05-07 11:39 35.54568 47.01092 32102 ft 454 kts 319°
2026-05-07 11:40 35.59886 46.97012 32115 ft 454 kts 319°
2026-05-07 11:40 35.65227 46.92884 32119 ft 453 kts 318°
2026-05-07 11:41 35.70478 46.88640 32117 ft 451 kts 317°
2026-05-07 11:41 35.75682 46.84335 32141 ft 450 kts 316°
2026-05-07 11:42 35.80893 46.80037 32135 ft 451 kts 317°
2026-05-07 11:42 35.86086 46.75786 32122 ft 451 kts 317°
2026-05-07 11:43 35.91317 46.71505 32135 ft 452 kts 317°
2026-05-07 11:43 35.96554 46.67214 32120 ft 452 kts 317°
2026-05-07 11:44 36.01728 46.62836 32127 ft 449 kts 315°
2026-05-07 11:44 36.06753 46.58268 32118 ft 449 kts 314°
2026-05-07 11:45 36.11728 46.53680 32115 ft 450 kts 314°
2026-05-07 11:45 36.16774 46.49100 32106 ft 450 kts 315°
2026-05-07 11:46 36.21836 46.44544 32099 ft 450 kts 315°
2026-05-07 11:46 36.26890 46.39990 32089 ft 449 kts 315°
2026-05-07 11:47 36.31921 46.35428 32102 ft 448 kts 314°
2026-05-07 11:47 36.36904 46.30890 32091 ft 447 kts 314°
2026-05-07 11:48 36.41922 46.26326 32101 ft 447 kts 314°
2026-05-07 11:48 36.46938 46.21758 32093 ft 448 kts 314°
2026-05-07 11:49 36.51956 46.17171 32093 ft 448 kts 314°
2026-05-07 11:49 36.56971 46.12576 32104 ft 448 kts 314°
2026-05-07 11:50 36.61993 46.07982 32086 ft 448 kts 314°
2026-05-07 11:50 36.66980 46.03417 32083 ft 448 kts 314°
2026-05-07 11:51 36.71999 45.98807 32093 ft 448 kts 314°
2026-05-07 11:51 36.77021 45.94183 32080 ft 449 kts 314°
2026-05-07 11:52 36.82042 45.89546 32102 ft 449 kts 314°
2026-05-07 11:52 36.87064 45.84907 32088 ft 449 kts 314°
2026-05-07 11:53 36.92057 45.80301 32067 ft 449 kts 314°
2026-05-07 11:53 36.97068 45.75656 32082 ft 448 kts 313°
2026-05-07 11:54 37.02068 45.71004 32072 ft 448 kts 314°
2026-05-07 11:54 37.07068 45.66362 32060 ft 447 kts 313°
2026-05-07 11:55 37.12052 45.61718 32071 ft 447 kts 313°
2026-05-07 11:55 37.17033 45.57069 32064 ft 446 kts 313°
2026-05-07 11:56 37.21973 45.52449 32097 ft 446 kts 313°
2026-05-07 11:56 37.26943 45.47800 32086 ft 445 kts 313°
2026-05-07 11:57 37.31910 45.43151 32077 ft 445 kts 313°
2026-05-07 11:57 37.36868 45.38502 32081 ft 445 kts 313°
2026-05-07 11:58 37.41515 45.33531 32074 ft 429 kts 301°
2026-05-07 11:58 37.43278 45.30633 32075 ft 418 kts 293°
2026-05-07 11:58 37.44680 45.27481 32078 ft 410 kts 288°
2026-05-07 11:59 37.47270 45.21079 32079 ft 410 kts 288°
2026-05-07 11:59 37.49872 45.14683 32083 ft 411 kts 288°
2026-05-07 12:00 37.52480 45.08281 32080 ft 411 kts 288°
2026-05-07 12:00 37.55080 45.01870 32082 ft 411 kts 288°
2026-05-07 12:01 37.57673 44.95455 32105 ft 411 kts 288°
2026-05-07 12:01 37.60245 44.89080 32101 ft 411 kts 288°
2026-05-07 12:02 37.62830 44.82651 32110 ft 411 kts 288°
2026-05-07 12:02 37.65414 44.76219 32132 ft 410 kts 288°
2026-05-07 12:03 37.67994 44.69790 32122 ft 410 kts 288°
2026-05-07 12:03 37.70561 44.63359 32118 ft 409 kts 287°
2026-05-07 12:04 37.72867 44.56913 32125 ft 403 kts 284°
2026-05-07 12:04 37.74931 44.50339 32143 ft 402 kts 283°
2026-05-07 12:05 37.76983 44.43754 32146 ft 404 kts 283°
2026-05-07 12:05 37.79095 44.37168 32142 ft 405 kts 284°
2026-05-07 12:06 37.81231 44.30578 32135 ft 405 kts 284°
2026-05-07 12:06 37.83363 44.23986 32147 ft 405 kts 284°
2026-05-07 12:07 37.85469 44.17431 32138 ft 405 kts 284°
2026-05-07 12:07 37.87588 44.10806 32130 ft 407 kts 284°
2026-05-07 12:08 37.89707 44.04173 32160 ft 406 kts 284°
2026-05-07 12:08 37.91821 43.97543 32152 ft 406 kts 284°
2026-05-07 12:09 37.93930 43.90901 32152 ft 407 kts 284°
2026-05-07 12:09 37.96045 43.84232 32145 ft 408 kts 284°
2026-05-07 12:10 37.98150 43.77603 32157 ft 409 kts 284°
2026-05-07 12:10 38.00267 43.70904 32153 ft 410 kts 284°
2026-05-07 12:11 38.02381 43.64187 32154 ft 411 kts 284°
2026-05-07 12:11 38.04497 43.57464 32146 ft 409 kts 284°
2026-05-07 12:12 38.06587 43.50818 32177 ft 409 kts 284°
2026-05-07 12:12 38.08687 43.44107 32161 ft 409 kts 284°
2026-05-07 12:13 38.10781 43.37378 32167 ft 411 kts 284°
2026-05-07 12:13 38.12708 43.30562 32167 ft 410 kts 281°
2026-05-07 12:14 38.14425 43.23660 32171 ft 410 kts 280°
2026-05-07 12:14 38.16123 43.16734 32166 ft 411 kts 281°
2026-05-07 12:15 38.17858 43.09855 32162 ft 412 kts 281°
2026-05-07 12:15 38.19625 43.02912 32159 ft 413 kts 281°
2026-05-07 12:16 38.21391 42.95956 32181 ft 413 kts 281°
2026-05-07 12:16 38.23146 42.88994 32174 ft 413 kts 282°
2026-05-07 12:17 38.24884 42.82083 32165 ft 412 kts 282°
2026-05-07 12:17 38.26625 42.75132 32157 ft 413 kts 282°
2026-05-07 12:18 38.28372 42.68166 32156 ft 413 kts 281°
2026-05-07 12:18 38.30116 42.61181 32156 ft 414 kts 281°
2026-05-07 12:19 38.31854 42.54182 32150 ft 415 kts 281°
2026-05-07 12:19 38.33599 42.47176 32148 ft 415 kts 281°
2026-05-07 12:20 38.35326 42.40209 32166 ft 416 kts 281°
2026-05-07 12:20 38.37059 42.33172 32148 ft 416 kts 281°
2026-05-07 12:21 38.38789 42.26120 32147 ft 418 kts 281°
2026-05-07 12:21 38.40523 42.19053 32149 ft 418 kts 281°
2026-05-07 12:22 38.42252 42.11977 32160 ft 418 kts 282°
2026-05-07 12:22 38.43976 42.04934 32155 ft 419 kts 282°
2026-05-07 12:23 38.45702 41.97829 32144 ft 420 kts 282°
2026-05-07 12:23 38.47421 41.90719 32142 ft 420 kts 281°
2026-05-07 12:24 38.49145 41.83604 32157 ft 420 kts 282°
2026-05-07 12:24 38.50867 41.76476 32150 ft 420 kts 282°
2026-05-07 12:25 38.52580 41.69339 32148 ft 420 kts 282°
2026-05-07 12:25 38.54289 41.62198 32138 ft 420 kts 282°
2026-05-07 12:26 38.55981 41.55103 32148 ft 420 kts 282°
2026-05-07 12:26 38.57686 41.47968 32136 ft 419 kts 282°
2026-05-07 12:27 38.59378 41.40845 32129 ft 418 kts 282°
2026-05-07 12:27 38.61201 41.33755 32127 ft 421 kts 284°
2026-05-07 12:28 38.63199 41.26718 32137 ft 422 kts 285°
2026-05-07 12:28 38.65185 41.19672 32123 ft 421 kts 284°
2026-05-07 12:29 38.67105 41.12656 32123 ft 420 kts 284°
2026-05-07 12:29 38.69020 41.05582 32125 ft 421 kts 284°
2026-05-07 12:30 38.70941 40.98495 32141 ft 421 kts 285°
2026-05-07 12:30 38.72867 40.91416 32133 ft 421 kts 285°
2026-05-07 12:31 38.74788 40.84326 32126 ft 421 kts 284°
2026-05-07 12:31 38.76680 40.77284 32146 ft 421 kts 285°
2026-05-07 12:32 38.78587 40.70190 32142 ft 422 kts 285°
2026-05-07 12:32 38.80497 40.63070 32137 ft 423 kts 285°
2026-05-07 12:33 38.83363 40.52352 32141 ft 424 kts 285°
2026-05-07 12:33 38.85268 40.45189 32146 ft 424 kts 285°
2026-05-07 12:34 38.87159 40.38064 32149 ft 425 kts 285°
2026-05-07 12:34 38.89066 40.30875 32145 ft 426 kts 285°
2026-05-07 12:35 38.90971 40.23676 32141 ft 426 kts 285°
2026-05-07 12:35 38.92870 40.16448 32155 ft 428 kts 286°
2026-05-07 12:36 38.94770 40.09193 32151 ft 429 kts 286°
2026-05-07 12:36 38.96676 40.01924 32144 ft 430 kts 286°
2026-05-07 12:37 38.98583 39.94632 32146 ft 431 kts 286°
2026-05-07 12:37 39.00477 39.87319 32146 ft 431 kts 286°
2026-05-07 12:38 39.02350 39.80040 32147 ft 432 kts 286°
2026-05-07 12:38 39.04239 39.72711 32148 ft 432 kts 286°
2026-05-07 12:39 39.06134 39.65379 32150 ft 432 kts 287°
2026-05-07 12:39 39.08034 39.58035 32148 ft 433 kts 287°
2026-05-07 12:40 39.09931 39.50673 32146 ft 434 kts 287°
2026-05-07 12:40 39.11820 39.43294 32147 ft 434 kts 287°
2026-05-07 12:41 39.13687 39.35950 32154 ft 435 kts 287°
2026-05-07 12:41 39.15657 39.28513 32152 ft 436 kts 289°
2026-05-07 12:42 39.17721 39.21209 32158 ft 437 kts 289°
2026-05-07 12:42 39.19805 39.13835 32152 ft 438 kts 289°
2026-05-07 12:43 39.21844 39.06426 32160 ft 439 kts 289°
2026-05-07 12:43 39.23872 38.98982 32165 ft 440 kts 289°
2026-05-07 12:44 39.25912 38.91521 32153 ft 441 kts 289°
2026-05-07 12:44 39.27938 38.84096 32152 ft 442 kts 289°
2026-05-07 12:45 39.29975 38.76602 32151 ft 443 kts 290°
2026-05-07 12:45 39.32013 38.69096 32153 ft 443 kts 290°
2026-05-07 12:46 39.34052 38.61570 32147 ft 444 kts 290°
2026-05-07 12:46 39.36084 38.54032 32133 ft 444 kts 290°
2026-05-07 12:47 39.38094 38.46535 32139 ft 445 kts 290°
2026-05-07 12:47 39.40114 38.38977 32134 ft 445 kts 290°
2026-05-07 12:48 39.42130 38.31404 32131 ft 445 kts 290°
2026-05-07 12:48 39.44144 38.23824 32125 ft 446 kts 290°
2026-05-07 12:49 39.46163 38.16233 32126 ft 446 kts 290°
2026-05-07 12:49 39.48181 38.08633 32124 ft 447 kts 290°
2026-05-07 12:50 39.50177 38.01074 32119 ft 447 kts 290°
2026-05-07 12:50 39.52183 37.93454 32114 ft 447 kts 291°
2026-05-07 12:51 39.54179 37.85832 32118 ft 447 kts 290°
2026-05-07 12:51 39.56169 37.78204 32119 ft 447 kts 290°
2026-05-07 12:52 39.58152 37.70631 32113 ft 447 kts 291°
2026-05-07 12:52 39.60144 37.62997 32119 ft 447 kts 291°
2026-05-07 12:53 39.62127 37.55355 32123 ft 447 kts 291°
2026-05-07 12:53 39.64092 37.47705 32122 ft 447 kts 291°
2026-05-07 12:54 39.66056 37.40060 32118 ft 446 kts 291°
2026-05-07 12:54 39.68016 37.32418 32128 ft 446 kts 291°
2026-05-07 12:55 39.69955 37.24831 32145 ft 445 kts 291°
2026-05-07 12:55 39.71901 37.17201 32172 ft 445 kts 291°
2026-05-07 12:56 39.73837 37.09575 32195 ft 445 kts 291°
2026-05-07 12:56 39.75768 37.01941 32217 ft 444 kts 291°
2026-05-07 12:57 39.77697 36.94309 32212 ft 444 kts 291°
2026-05-07 12:57 39.79336 36.86566 32222 ft 447 kts 283°
2026-05-07 12:58 39.80404 36.78671 32222 ft 446 kts 283°
2026-05-07 12:58 39.81486 36.70745 32204 ft 445 kts 283°
2026-05-07 12:59 39.82560 36.62820 32185 ft 445 kts 283°
2026-05-07 12:59 39.83628 36.54894 32139 ft 445 kts 283°
2026-05-07 13:00 39.84676 36.47020 32135 ft 444 kts 283°
2026-05-07 13:00 39.85725 36.39102 32146 ft 444 kts 283°
2026-05-07 13:01 39.86806 36.31190 32142 ft 444 kts 284°
2026-05-07 13:01 39.87952 36.23303 32137 ft 443 kts 284°
2026-05-07 13:02 39.89021 36.15399 32147 ft 443 kts 283°
2026-05-07 13:02 39.90038 36.07496 32141 ft 442 kts 283°
2026-05-07 13:03 39.90884 36.00942 32142 ft 441 kts 284°
2026-05-07 13:03 39.91904 35.93070 32141 ft 441 kts 284°
2026-05-07 13:04 39.92941 35.85208 32125 ft 440 kts 284°
2026-05-07 13:04 39.93968 35.77368 32139 ft 438 kts 284°
2026-05-07 13:05 39.94971 35.69596 32138 ft 437 kts 284°
2026-05-07 13:05 39.95969 35.61789 32138 ft 436 kts 284°
2026-05-07 13:06 39.96959 35.53987 32141 ft 436 kts 284°
2026-05-07 13:06 39.97941 35.46192 32141 ft 435 kts 284°
2026-05-07 13:07 39.98917 35.38402 32137 ft 435 kts 284°
2026-05-07 13:07 39.99872 35.30665 32139 ft 435 kts 284°
2026-05-07 13:08 40.00797 35.22871 32139 ft 435 kts 283°
2026-05-07 13:08 40.01704 35.15081 32143 ft 434 kts 283°
2026-05-07 13:09 40.02615 35.07302 32140 ft 434 kts 283°
2026-05-07 13:09 40.03523 34.99531 32144 ft 433 kts 283°
2026-05-07 13:10 40.04431 34.91762 32144 ft 433 kts 283°
2026-05-07 13:10 40.05323 34.84047 32138 ft 433 kts 283°
2026-05-07 13:11 40.06213 34.76276 32146 ft 433 kts 283°
2026-05-07 13:11 40.07098 34.68508 32149 ft 432 kts 283°
2026-05-07 13:12 40.07980 34.60740 32152 ft 433 kts 283°
2026-05-07 13:12 40.08862 34.52972 32146 ft 433 kts 282°
2026-05-07 13:13 40.09725 34.45246 32142 ft 433 kts 282°
2026-05-07 13:13 40.10592 34.37461 32144 ft 433 kts 282°
2026-05-07 13:14 40.11451 34.29670 32141 ft 433 kts 282°
2026-05-07 13:14 40.12310 34.21882 32141 ft 433 kts 282°
2026-05-07 13:15 40.13160 34.14091 32142 ft 433 kts 282°
2026-05-07 13:15 40.13998 34.06359 32140 ft 433 kts 282°
2026-05-07 13:16 40.14833 33.98575 32141 ft 432 kts 282°
2026-05-07 13:16 40.15726 33.90828 32139 ft 430 kts 284°
2026-05-07 13:17 40.16806 33.83140 32141 ft 430 kts 284°
2026-05-07 13:17 40.17764 33.75403 32142 ft 432 kts 282°
2026-05-07 13:18 40.18533 33.67664 32140 ft 432 kts 281°
2026-05-07 13:18 40.19274 33.59869 32142 ft 432 kts 281°
2026-05-07 13:19 40.20048 33.52068 32141 ft 432 kts 282°
2026-05-07 13:19 40.20840 33.44284 32145 ft 431 kts 282°
2026-05-07 13:20 40.21628 33.36525 32156 ft 430 kts 282°
2026-05-07 13:20 40.22401 33.28774 32157 ft 429 kts 282°
2026-05-07 13:21 40.23160 33.21089 32160 ft 429 kts 282°
2026-05-07 13:21 40.23917 33.13348 32166 ft 428 kts 282°
2026-05-07 13:22 40.25370 33.05905 32168 ft 420 kts 293°
2026-05-07 13:22 40.27259 32.98679 32165 ft 419 kts 293°
2026-05-07 13:23 40.29145 32.91461 32164 ft 418 kts 293°
2026-05-07 13:23 40.30999 32.84307 32161 ft 417 kts 293°
2026-05-07 13:24 40.32856 32.77106 32163 ft 417 kts 293°
2026-05-07 13:24 40.34706 32.69896 32164 ft 417 kts 293°
2026-05-07 13:25 40.36555 32.62680 32161 ft 418 kts 293°
2026-05-07 13:25 40.38403 32.55459 32152 ft 418 kts 293°
2026-05-07 13:26 40.40243 32.48245 32151 ft 417 kts 293°
2026-05-07 13:26 40.42066 32.41077 32150 ft 417 kts 293°
2026-05-07 13:27 40.43894 32.33851 32156 ft 417 kts 293°
2026-05-07 13:27 40.45715 32.26623 32136 ft 417 kts 292°
2026-05-07 13:28 40.47535 32.19399 32151 ft 417 kts 293°
2026-05-07 13:28 40.49546 32.12278 32148 ft 415 kts 296°
2026-05-07 13:29 40.51691 32.05287 32146 ft 416 kts 296°
2026-05-07 13:29 40.53835 31.98218 32150 ft 417 kts 295°
2026-05-07 13:30 40.55932 31.91103 32146 ft 418 kts 295°
2026-05-07 13:30 40.58026 31.83957 32149 ft 419 kts 295°
2026-05-07 13:31 40.59966 31.76761 32150 ft 421 kts 292°
2026-05-07 13:31 40.61738 31.69405 32141 ft 422 kts 291°
2026-05-07 13:32 40.63497 31.62042 32141 ft 422 kts 291°
2026-05-07 13:32 40.65297 31.54687 32141 ft 422 kts 291°
2026-05-07 13:33 40.67111 31.47317 32144 ft 423 kts 291°
2026-05-07 13:33 40.68912 31.39988 32136 ft 423 kts 291°
2026-05-07 13:34 40.71620 31.28905 32140 ft 424 kts 291°
2026-05-07 13:35 40.73414 31.21510 32140 ft 424 kts 291°
2026-05-07 13:35 40.75200 31.14118 32137 ft 423 kts 291°
2026-05-07 13:36 40.76972 31.06784 32140 ft 422 kts 291°
2026-05-07 13:36 40.78741 30.99409 32138 ft 421 kts 291°
2026-05-07 13:37 40.80511 30.92050 32139 ft 421 kts 291°
2026-05-07 13:37 40.82274 30.84693 32136 ft 420 kts 291°
2026-05-07 13:38 40.84010 30.77393 32131 ft 419 kts 291°
2026-05-07 13:38 40.85747 30.70044 32132 ft 419 kts 291°
2026-05-07 13:39 40.87398 30.62649 32130 ft 421 kts 288°
2026-05-07 13:39 40.88739 30.55113 32130 ft 422 kts 287°
2026-05-07 13:40 40.89996 30.47545 32125 ft 421 kts 287°
2026-05-07 13:40 40.91293 30.40054 32125 ft 421 kts 287°
2026-05-07 13:41 40.92633 30.32526 32128 ft 420 kts 287°
2026-05-07 13:41 40.93968 30.24998 32128 ft 420 kts 287°
2026-05-07 13:42 40.95291 30.17467 32123 ft 420 kts 287°
2026-05-07 13:42 40.96607 30.09934 32124 ft 420 kts 287°
2026-05-07 13:43 40.97919 30.02394 32129 ft 420 kts 287°
2026-05-07 13:43 40.99216 29.94901 32128 ft 421 kts 287°
2026-05-07 13:44 41.00498 29.87336 32113 ft 421 kts 287°
2026-05-07 13:44 41.01774 29.79768 32125 ft 422 kts 287°
2026-05-07 13:45 41.03052 29.72180 32125 ft 422 kts 287°
2026-05-07 13:45 41.04325 29.64596 32122 ft 422 kts 287°
2026-05-07 13:46 41.05593 29.57058 32101 ft 422 kts 287°
2026-05-07 13:46 41.06869 29.49476 32117 ft 422 kts 286°
2026-05-07 13:47 41.08144 29.41877 32115 ft 422 kts 286°
2026-05-07 13:47 41.09412 29.34277 32116 ft 423 kts 286°
2026-05-07 13:48 41.10669 29.26666 32119 ft 422 kts 286°
2026-05-07 13:48 41.11751 29.19004 32112 ft 426 kts 277°
2026-05-07 13:48 41.11631 29.15056 32112 ft 432 kts 266°
2026-05-07 13:49 41.10898 29.11164 32114 ft 440 kts 255°
2026-05-07 13:49 41.09566 29.07481 32113 ft 448 kts 244°
2026-05-07 13:49 41.07963 29.04006 32111 ft 448 kts 244°
2026-05-07 13:50 41.04698 28.96960 32110 ft 449 kts 244°
2026-05-07 13:50 41.01432 28.89917 32103 ft 449 kts 243°
2026-05-07 13:51 40.98157 28.82885 32115 ft 449 kts 243°
2026-05-07 13:51 40.94886 28.75857 32108 ft 449 kts 243°
2026-05-07 13:52 40.91630 28.68882 32121 ft 449 kts 243°
2026-05-07 13:52 40.89989 28.65365 31979 ft 449 kts 243°
2026-05-07 13:52 40.88358 28.61872 31738 ft 444 kts 243°
2026-05-07 13:52 40.86736 28.58414 31356 ft 442 kts 243°
2026-05-07 13:53 40.85121 28.54973 30985 ft 440 kts 243°
2026-05-07 13:53 40.83513 28.51550 30609 ft 437 kts 243°
2026-05-07 13:53 40.81915 28.48149 30249 ft 435 kts 243°
2026-05-07 13:53 40.80323 28.44763 29846 ft 433 kts 243°
2026-05-07 13:54 40.78736 28.41395 29429 ft 431 kts 242°
2026-05-07 13:54 40.77174 28.38088 29023 ft 429 kts 242°
2026-05-07 13:54 40.75595 28.34753 28602 ft 428 kts 242°
2026-05-07 13:54 40.74024 28.31433 28203 ft 426 kts 242°
2026-05-07 13:55 40.72458 28.28127 27803 ft 424 kts 242°
2026-05-07 13:55 40.70901 28.24834 27418 ft 422 kts 242°
2026-05-07 13:55 40.69352 28.21559 27037 ft 421 kts 242°
2026-05-07 13:55 40.67803 28.18295 26660 ft 419 kts 242°
2026-05-07 13:56 40.66257 28.15042 26286 ft 418 kts 242°
2026-05-07 13:56 40.64719 28.11808 25919 ft 416 kts 242°
2026-05-07 13:56 40.63184 28.08583 25555 ft 415 kts 242°
2026-05-07 13:56 40.61671 28.05414 25193 ft 414 kts 242°
2026-05-07 13:57 40.60141 28.02215 24824 ft 412 kts 242°
2026-05-07 13:57 40.58618 27.99028 24484 ft 411 kts 242°
2026-05-07 13:57 40.57102 27.95857 24143 ft 409 kts 242°
2026-05-07 13:57 40.55589 27.92695 23802 ft 408 kts 241°
2026-05-07 13:58 40.54078 27.89543 23423 ft 406 kts 241°
2026-05-07 13:58 40.52573 27.86413 23021 ft 405 kts 241°
2026-05-07 13:58 40.51070 27.83292 22616 ft 403 kts 241°
2026-05-07 13:58 40.49592 27.80225 22222 ft 402 kts 241°
2026-05-07 13:59 40.48099 27.77125 21838 ft 401 kts 241°
2026-05-07 13:59 40.46611 27.74034 21452 ft 399 kts 241°
2026-05-07 13:59 40.45131 27.70964 21075 ft 398 kts 241°
2026-05-07 13:59 40.43653 27.67897 20702 ft 397 kts 240°
2026-05-07 14:00 40.42179 27.64841 20333 ft 396 kts 240°
2026-05-07 14:00 40.40707 27.61796 19954 ft 395 kts 240°
2026-05-07 14:00 40.39237 27.58764 19593 ft 393 kts 240°
2026-05-07 14:00 40.37773 27.55744 19246 ft 391 kts 240°
2026-05-07 14:01 40.36316 27.52740 18896 ft 390 kts 240°
2026-05-07 14:01 40.34881 27.49786 18554 ft 389 kts 240°
2026-05-07 14:01 40.33430 27.46805 18181 ft 388 kts 240°
2026-05-07 14:01 40.31979 27.43830 17783 ft 387 kts 240°
2026-05-07 14:02 40.30483 27.40904 17379 ft 387 kts 233°
2026-05-07 14:02 40.28565 27.38420 16996 ft 390 kts 219°
2026-05-07 14:02 40.26221 27.36620 16614 ft 391 kts 205°
2026-05-07 14:02 40.23619 27.35634 16232 ft 390 kts 191°
2026-05-07 14:03 40.20947 27.35137 15859 ft 386 kts 190°
2026-05-07 14:03 40.18299 27.34651 15452 ft 383 kts 189°
2026-05-07 14:03 40.15696 27.34168 14998 ft 383 kts 190°
2026-05-07 14:03 40.13069 27.33676 14547 ft 380 kts 190°
2026-05-07 14:04 40.10463 27.33185 14102 ft 376 kts 190°
2026-05-07 14:04 40.07913 27.32705 13611 ft 362 kts 190°
2026-05-07 14:04 40.05490 27.32253 13112 ft 342 kts 190°
2026-05-07 14:04 40.03193 27.31830 12621 ft 325 kts 190°
2026-05-07 14:05 40.01006 27.31425 12141 ft 310 kts 190°
2026-05-07 14:05 39.98912 27.31034 11668 ft 298 kts 190°
2026-05-07 14:05 39.96901 27.30656 11193 ft 286 kts 190°
2026-05-07 14:05 39.94963 27.30293 10711 ft 278 kts 190°
2026-05-07 14:06 39.93062 27.29937 10237 ft 274 kts 190°
2026-05-07 14:06 39.91228 27.29597 9784 ft 267 kts 190°
2026-05-07 14:06 39.89399 27.29257 9257 ft 264 kts 191°
2026-05-07 14:06 39.87597 27.28919 8734 ft 260 kts 190°
2026-05-07 14:07 39.85820 27.28587 8219 ft 256 kts 191°
2026-05-07 14:07 39.84078 27.28263 7720 ft 250 kts 190°
2026-05-07 14:07 39.82386 27.27950 7269 ft 241 kts 191°
2026-05-07 14:07 39.80754 27.27754 6886 ft 230 kts 182°
2026-05-07 14:08 39.79208 27.27844 6564 ft 217 kts 180°
2026-05-07 14:08 39.77725 27.27929 6237 ft 210 kts 180°
2026-05-07 14:08 39.76276 27.28006 5909 ft 209 kts 180°
2026-05-07 14:08 39.74809 27.28082 5626 ft 212 kts 180°
2026-05-07 14:09 39.73342 27.28152 5495 ft 209 kts 182°
2026-05-07 14:09 39.71911 27.27911 5359 ft 207 kts 197°
2026-05-07 14:09 39.70583 27.27208 5245 ft 208 kts 212°
2026-05-07 14:09 39.69427 27.26073 5124 ft 210 kts 226°
2026-05-07 14:10 39.68524 27.24626 4857 ft 209 kts 235°
2026-05-07 14:10 39.67671 27.23085 4544 ft 210 kts 235°
2026-05-07 14:10 39.66828 27.21567 4231 ft 204 kts 236°
2026-05-07 14:10 39.66001 27.20103 3922 ft 198 kts 235°
2026-05-07 14:11 39.65205 27.18690 3615 ft 190 kts 236°
2026-05-07 14:11 39.64437 27.17327 3339 ft 185 kts 234°
2026-05-07 14:11 39.63714 27.16039 3073 ft 165 kts 233°
2026-05-07 14:11 39.63073 27.14894 2812 ft 150 kts 234°
2026-05-07 14:12 39.62465 27.13811 2571 ft 149 kts 234°
2026-05-07 14:12 39.61852 27.12718 2360 ft 154 kts 234°
2026-05-07 14:12 39.61234 27.11627 2126 ft 146 kts 234°
2026-05-07 14:12 39.60626 27.10549 1885 ft 151 kts 235°
2026-05-07 14:13 39.60001 27.09426 1671 ft 154 kts 235°
2026-05-07 14:13 39.59374 27.08309 1424 ft 154 kts 236°
2026-05-07 14:13 39.58746 27.07193 1172 ft 149 kts 236°
2026-05-07 14:13 39.58130 27.06110 949 ft 149 kts 236°
2026-05-07 14:14 39.57530 27.05066 729 ft 143 kts 235°
2026-05-07 14:14 39.56942 27.04029 504 ft 143 kts 235°
2026-05-07 14:14 39.56360 27.02993 309 ft 142 kts 236°
2026-05-07 14:14 39.55786 27.01965 89 ft 139 kts 234°
2026-05-07 14:15 39.55246 27.01027 52 ft 119 kts 234°
2026-05-07 14:15 39.54867 27.00356 47 ft 66 kts 234°
2026-05-07 14:15 39.54698 27.00060 45 ft 17 kts 233°
2026-05-07 14:15 39.54650 26.99977 44 ft 11 kts 232°
2026-05-07 14:16 39.54604 26.99901 44 ft 11 kts 232°
2026-05-07 14:16 39.54556 26.99819 42 ft 13 kts 233°
2026-05-07 14:16 39.54495 26.99732 41 ft 13 kts 212°
2026-05-07 14:16 39.54434 26.99676 41 ft 8 kts 254°
2026-05-07 14:17 39.54461 26.99651 41 ft 4 kts 12°
2026-05-07 14:17 39.54491 26.99697 41 ft 11 kts 54°
2026-05-07 14:17 39.54556 26.99816 42 ft 20 kts 54°
2026-05-07 14:17 39.54638 26.99961 44 ft 19 kts 51°
2026-05-07 14:18 39.54713 27.00093 46 ft 17 kts 53°
2026-05-07 14:18 39.54775 27.00203 49 ft 14 kts 54°
2026-05-07 14:18 39.54832 27.00303 47 ft 14 kts 53°
2026-05-07 14:18 39.54892 27.00409 47 ft 14 kts 53°
2026-05-07 14:19 39.54950 27.00511 47 ft 14 kts 53°
2026-05-07 14:19 39.55014 27.00623 45 ft 16 kts 53°
2026-05-07 14:19 39.55078 27.00735 47 ft 15 kts 54°
2026-05-07 14:19 39.55136 27.00838 47 ft 14 kts 54°
2026-05-07 14:20 39.55165 27.00931 48 ft 8 kts 108°
2026-05-07 14:20 39.55127 27.00979 48 ft 8 kts 144°
2026-05-07 14:20 39.55081 27.01021 48 ft 8 kts 144°
2026-05-07 14:20 39.55038 27.01061 49 ft 7 kts 144°
2026-05-07 14:21 39.55016 27.01081 50 ft 3 kts 147°
2026-05-07 14:21 39.54991 27.01084 50 ft 4 kts 188°
2026-05-07 14:21 39.54962 27.01078 51 ft 4 kts 185°
2026-05-07 14:21 39.54941 27.01084 49 ft 2 kts 157°
2026-05-07 14:22 39.54930 27.01094 51 ft 1 kts 145°
2026-05-07 14:22 39.54924 27.01100 51 ft 1 kts 145°
2026-05-07 14:22 39.54921 27.01102 51 ft 0 kts 145°
2026-05-07 14:22 39.54918 27.01106 51 ft 1 kts 144°
2026-05-07 14:23 39.54914 27.01109 51 ft 1 kts 144°
2026-05-07 14:23 39.54910 27.01113 51 ft 0 kts 144°
2026-05-07 14:23 39.54909 27.01114 51 ft 0 kts 144°
2026-05-07 14:23 39.54908 27.01115 51 ft 0 kts 144°
2026-05-07 14:24 39.54907 27.01116 51 ft 0 kts 144°